SCD 1

Satellite information

Favourite Embed

Satellite Type and Status

PAYLOADIN ORBIT

Key statistics

Satellite SCD 1 at a glance.

Uptime

11897

Days in orbit

Revolutions

≈ 14.5

Per day

Orbit

LEO

Low Earth Orbit

Inclination

25.0

Latest

Satellite identification and parameters

Extended collection of information and parameters for SCD 1.

Object identification

Identified? True

Debris? False

Object name: SCD 1

International designator: 1993-009B

Object number (NORAD): 22490

Object ID (CCSDS): 22490

Country: BRAZIL (BRAZ)

Current information (Y/N): Y

RCS size: MEDIUM

Orbital parameters

Period: 99.592 minutes

Inclination: 24.9686 deg

SMA: 7117.195 km

Apoapsis: 768.965 km

Periapsis: 709.156 km

RAAN: 163.1095 deg

Eccentricy: 0.00420167

Argument of periapsis: 9.0006 deg

Mean anomaly: 36.3065 deg

Mean motion: 14.4590387 rev/day

Mean motion (dot): 0.00000739 rev/day2

B* drag term: 0.00015173514 1/REarth

Two-line elements (TLE)

Creation date: Sept. 6, 2025, 2:09 a.m.

Reference frame: TEME

Reference center: EARTH

Epoch: Sept. 5, 2025, 7:42 p.m. UTC

TLE line 0: 0 SCD 1

TLE line 1: 1 22490U 93009B 25248.82128377 .00000739 00000-0 15174-3 0 9997

TLE line 2: 2 22490 24.9686 163.1095 0042017 9.0006 36.3065 14.45903870719919

Live tracking on map

Real-time ground track for satellite SCD 1.

In-orbit conjunctions

There are no conjunctions computed for SCD 1, at the moment. Check back to stay up to date, as we update our databases every day.

Go to all conjunctions

Associated space launch

SCD 1 was lifted into orbit during the mission ‘Pegasus | Satélite de Coleta de Dados-1 (SCD-1)’, on board a Pegasus space rocket.

The launch took place on Feb. 9, 1993, 2:30 p.m. from Cape Canaveral.

For more information about the launch, click the button.

Launch to space Pegasus | Satélite de Coleta de Dados-1 (SCD-1)
Pegasus | Satélite de Coleta de Dados-1 (SCD-1)

Agency: N/A

Status: Launch Successful

Launch date: Feb. 9, 1993, 2:30 p.m. UTC

Rocket: Pegasus

Launch pad: Cape Canaveral

Location: Air launch to orbit

...

Latest news about this satellite

There are no fresh news available about this satellite. Check back as we update our databases every day.


Newsletter sign-up

Weekly statistics, charts and insights to help you stay on top of the space industry.